When you browse on this site, cookies collect data to enhance your experience and personalize the content and advertising you see.
Visit our Privacy Policy to learn more. By continuing to use the site, you agree to this use of cookies and data.
  • In Portugal
  • List of Countries
  • For 7 days
  • Water Temperature
  • Satellite Maps
  • Weather Map
  • Weather Widgets
  • user-avatar
    Login

    Hourly Weather Cochabamba

    Today, 20 November, Tuesday

    Time Temperature Precipitation Wind Pressure Humidity
    00:00 +16°C° 0.2 mm 1 mps 556 mmHg 74%
    01:00 +16°C° 0.2 mm 1 mps 556 mmHg 74%
    02:00 +16°C° 0.2 mm 1 mps 555 mmHg 75%
    03:00 +16°C° 0.1 mm 1 mps 555 mmHg 75%
    04:00 +15°C° 0.1 mm 1 mps 555 mmHg 76%
    05:00 +15°C° 0.1 mm 1 mps 555 mmHg 77%
    06:00 +16°C° 0 mm 1 mps 556 mmHg 73%
    07:00 +18°C° 0 mm 1 mps 556 mmHg 69%
    08:00 +18°C° 0 mm 1 mps 557 mmHg 65%
    09:00 +19°C° 0 mm 1 mps 557 mmHg 61%
    10:00 +20°C° 0 mm 1 mps 557 mmHg 58%
    11:00 +22°C° 0 mm 1 mps 558 mmHg 54%
    12:00 +21°C° 0.1 mm 2 mps 557 mmHg 54%
    13:00 +21°C° 0.1 mm 2 mps 557 mmHg 53%
    14:00 +22°C° 0.1 mm 3 mps 557 mmHg 52%
    15:00 +22°C° 0.1 mm 3 mps 556 mmHg 55%
    16:00 +21°C° 0.1 mm 3 mps 556 mmHg 57%
    17:00 +21°C° 0.1 mm 3 mps 555 mmHg 59%
    18:00 +20°C° 0.1 mm 3 mps 555 mmHg 64%
    19:00 +19°C° 0.1 mm 3 mps 556 mmHg 68%
    20:00 +18°C° 0.1 mm 3 mps 556 mmHg 72%
    21:00 +18°C° 0.4 mm 2 mps 556 mmHg 73%
    22:00 +17°C° 0.4 mm 2 mps 556 mmHg 74%
    23:00 +17°C° 0.4 mm 2 mps 557 mmHg 75%

    Tomorrow, 21 November, Wednesday

    Time Temperature Precipitation Wind Pressure Humidity
    00:00 +18°C° 0.3 mm 1 mps 556 mmHg 76%
    01:00 +16°C° 0.3 mm 1 mps 556 mmHg 76%
    02:00 +16°C° 0.3 mm 1 mps 555 mmHg 76%
    03:00 +16°C° 0.1 mm 1 mps 555 mmHg 76%
    04:00 +16°C° 0.1 mm 1 mps 555 mmHg 76%
    05:00 +16°C° 0.1 mm 1 mps 555 mmHg 76%
    06:00 +16°C° 0.1 mm 1 mps 556 mmHg 73%
    07:00 +18°C° 0.1 mm 1 mps 556 mmHg 71%
    08:00 +16°C° 0.1 mm 0 mps 557 mmHg 69%
    09:00 +19°C° 0.1 mm 1 mps 557 mmHg 65%
    10:00 +20°C° 0.1 mm 1 mps 558 mmHg 61%
    11:00 +20°C° 0.1 mm 2 mps 558 mmHg 57%
    12:00 +21°C° 0.3 mm 2 mps 558 mmHg 55%
    13:00 +23°C° 0.3 mm 2 mps 557 mmHg 54%
    14:00 +22°C° 0.3 mm 3 mps 557 mmHg 52%
    15:00 +22°C° 0.2 mm 3 mps 556 mmHg 54%
    16:00 +22°C° 0.2 mm 3 mps 556 mmHg 55%
    17:00 +22°C° 0.2 mm 3 mps 555 mmHg 57%
    18:00 +21°C° 0.1 mm 3 mps 555 mmHg 61%
    19:00 +20°C° 0.1 mm 2 mps 555 mmHg 66%
    20:00 +19°C° 0.1 mm 2 mps 555 mmHg 70%
    21:00 +18°C° 0.3 mm 2 mps 555 mmHg 72%
    22:00 +19°C° 0.3 mm 1 mps 556 mmHg 74%
    23:00 +19°C° 0.3 mm 1 mps 556 mmHg 75%

    Day after tomorrow, 22 November, Thursday

    Time Temperature Precipitation Wind Pressure Humidity
    00:00 +18°C° 0.3 mm 1 mps 556 mmHg 75%
    01:00 +18°C° 0.3 mm 1 mps 555 mmHg 74%
    02:00 +18°C° 0.3 mm 1 mps 555 mmHg 74%
    03:00 +18°C° 0.3 mm 1 mps 554 mmHg 73%
    04:00 +18°C° 0.3 mm 1 mps 554 mmHg 72%
    05:00 +18°C° 0.3 mm 1 mps 554 mmHg 70%
    06:00 +18°C° 0.1 mm 1 mps 555 mmHg 67%
    07:00 +19°C° 0.1 mm 1 mps 555 mmHg 64%
    08:00 +19°C° 0.1 mm 2 mps 555 mmHg 61%
    09:00 +20°C° 0 mm 2 mps 556 mmHg 57%
    10:00 +21°C° 0 mm 2 mps 556 mmHg 53%
    11:00 +23°C° 0 mm 2 mps 557 mmHg 49%
    12:00 +24°C° 0.2 mm 2 mps 556 mmHg 50%
    13:00 +24°C° 0.2 mm 2 mps 555 mmHg 50%
    14:00 +24°C° 0.2 mm 2 mps 555 mmHg 50%
    15:00 +24°C° 0.3 mm 3 mps 554 mmHg 52%
    16:00 +24°C° 0.3 mm 3 mps 554 mmHg 54%
    17:00 +24°C° 0.3 mm 3 mps 553 mmHg 56%
    18:00 +22°C° 0.2 mm 3 mps 553 mmHg 61%
    19:00 +20°C° 0.2 mm 3 mps 553 mmHg 66%
    20:00 +19°C° 0.2 mm 3 mps 554 mmHg 72%
    21:00 +19°C° 0.2 mm 3 mps 554 mmHg 72%
    22:00 +19°C° 0.2 mm 2 mps 554 mmHg 73%
    23:00 +19°C° 0.2 mm 1 mps 554 mmHg 73%

    23 November, Friday

    Time Temperature Precipitation Wind Pressure Humidity
    00:00 +19°C° 0.1 mm 1 mps 554 mmHg 73%
    01:00 +18°C° 0.1 mm 2 mps 553 mmHg 73%
    02:00 +18°C° 0.1 mm 2 mps 553 mmHg 73%
    03:00 +17°C° 0 mm 2 mps 553 mmHg 73%
    04:00 +18°C° 0 mm 1 mps 553 mmHg 72%
    05:00 +18°C° 0 mm 1 mps 552 mmHg 72%
    06:00 +19°C° 0 mm 1 mps 553 mmHg 67%
    07:00 +20°C° 0 mm 1 mps 554 mmHg 62%
    08:00 +21°C° 0 mm 1 mps 555 mmHg 57%
    09:00 +22°C° 0.1 mm 1 mps 555 mmHg 53%
    10:00 +23°C° 0.1 mm 1 mps 556 mmHg 50%
    11:00 +24°C° 0.1 mm 2 mps 556 mmHg 46%
    12:00 +24°C° 0.5 mm 2 mps 556 mmHg 47%
    13:00 +25°C° 0.5 mm 3 mps 555 mmHg 47%
    14:00 +25°C° 0.5 mm 3 mps 555 mmHg 48%
    15:00 +23°C° 0.7 mm 4 mps 554 mmHg 52%
    16:00 +22°C° 0.7 mm 4 mps 554 mmHg 57%
    17:00 +21°C° 0.7 mm 4 mps 553 mmHg 62%
    18:00 +20°C° 1.2 mm 4 mps 553 mmHg 67%
    19:00 +19°C° 1.2 mm 3 mps 554 mmHg 71%
    20:00 +18°C° 1.2 mm 3 mps 554 mmHg 76%
    21:00 +18°C° 1.8 mm 3 mps 554 mmHg 77%
    22:00 +17°C° 1.8 mm 2 mps 555 mmHg 78%
    23:00 +17°C° 1.8 mm 2 mps 555 mmHg 78%

    24 November, Saturday

    Time Temperature Precipitation Wind Pressure Humidity
    00:00 +17°C° 1.6 mm 2 mps 555 mmHg 78%
    01:00 +16°C° 1.6 mm 2 mps 554 mmHg 78%
    02:00 +16°C° 1.6 mm 2 mps 554 mmHg 78%
    03:00 +16°C° 1.1 mm 2 mps 554 mmHg 77%
    04:00 +16°C° 1.1 mm 2 mps 554 mmHg 77%
    05:00 +15°C° 1.1 mm 1 mps 554 mmHg 76%
    06:00 +16°C° 0.7 mm 1 mps 554 mmHg 74%
    07:00 +16°C° 0.7 mm 1 mps 555 mmHg 73%
    08:00 +16°C° 0.7 mm 1 mps 555 mmHg 71%
    09:00 +18°C° 0.5 mm 1 mps 556 mmHg 68%
    10:00 +19°C° 0.5 mm 1 mps 556 mmHg 65%
    11:00 +19°C° 0.5 mm 2 mps 556 mmHg 61%
    12:00 +19°C° 0.5 mm 2 mps 556 mmHg 60%
    13:00 +20°C° 0.5 mm 2 mps 555 mmHg 59%
    14:00 +20°C° 0.5 mm 3 mps 555 mmHg 59%
    15:00 +20°C° 0.3 mm 3 mps 555 mmHg 60%
    16:00 +19°C° 0.3 mm 3 mps 554 mmHg 62%
    17:00 +19°C° 0.3 mm 3 mps 554 mmHg 64%
    18:00 +18°C° 0.1 mm 2 mps 554 mmHg 67%
    19:00 +18°C° 0.1 mm 2 mps 554 mmHg 70%
    20:00 +17°C° 0.1 mm 2 mps 555 mmHg 73%
    21:00 +17°C° 0.1 mm 2 mps 555 mmHg 74%
    22:00 +16°C° 0.1 mm 2 mps 555 mmHg 76%
    23:00 +16°C° 0.1 mm 2 mps 555 mmHg 77%

    25 November, Sunday

    Time Temperature Precipitation Wind Pressure Humidity
    00:00 +16°C° 0.1 mm 2 mps 555 mmHg 77%
    01:00 +15°C° 0.1 mm 2 mps 554 mmHg 77%
    02:00 +15°C° 0.1 mm 2 mps 554 mmHg 77%
    03:00 +15°C° 0.1 mm 1 mps 554 mmHg 77%
    04:00 +15°C° 0.1 mm 1 mps 554 mmHg 76%
    05:00 +15°C° 0.1 mm 1 mps 554 mmHg 76%
    06:00 +15°C° 0.1 mm 1 mps 554 mmHg 72%
    07:00 +16°C° 0.1 mm 1 mps 555 mmHg 69%
    08:00 +18°C° 0.1 mm 1 mps 556 mmHg 65%
    09:00 +19°C° 0.1 mm 1 mps 556 mmHg 62%
    10:00 +20°C° 0.1 mm 1 mps 556 mmHg 58%
    11:00 +20°C° 0.1 mm 2 mps 557 mmHg 55%
    12:00 +21°C° 0.2 mm 2 mps 556 mmHg 54%
    13:00 +21°C° 0.2 mm 3 mps 556 mmHg 53%
    14:00 +22°C° 0.2 mm 3 mps 555 mmHg 52%
    15:00 +21°C° 0.3 mm 3 mps 555 mmHg 55%
    16:00 +21°C° 0.3 mm 3 mps 554 mmHg 58%
    17:00 +20°C° 0.3 mm 3 mps 554 mmHg 61%
    18:00 +19°C° 0.3 mm 3 mps 554 mmHg 65%
    19:00 +19°C° 0.3 mm 2 mps 554 mmHg 69%
    20:00 +18°C° 0.3 mm 2 mps 554 mmHg 72%
    21:00 +17°C° 0.2 mm 2 mps 554 mmHg 74%
    22:00 +17°C° 0.2 mm 2 mps 555 mmHg 75%
    23:00 +18°C° 0.2 mm 1 mps 555 mmHg 76%
    Show more